Location: Exeidioux
(45.6312°N, 1.6819°E)
Time: 17:20:41
(UTC+00:00)

PSLV R/B - Pass Details

Date: 03 March 2021
Orbit: 567 x 598 km, 98.2° (Epoch: 15 April)

Event Time Altitude Azimuth Distance (km) Brightness Sun altitude
Rises 18:34:04 0° 14° (NNE) 2,806 7.3 -9.7°
Reaches altitude 10° 18:36:15 10° 16° (NNE) 1,897 6.4 -10.1°
Maximum altitude 18:40:22 77° 103° (ESE) 594 3.8 -10.8°
Drops below altitude 10° 18:44:24 10° 190° (S) 1,866 6.6 -11.5°
Sets 18:46:31 0° 191° (SSW) 2,756 7.5 -11.9°
